This is the latest recevied weather packets stored in our database for station/object KD4EG. If no packets are shown the sender has not sent any weather packets the latest 1 day(s).
| Time | Temp. | Humidity | Pressure | Rain* | Wind** | Luminosity | Snow |
|---|---|---|---|---|---|---|---|
| 1778005593 | 25.56° C | 41% | 1014.7 hPa | 0 mm | 3.13 m/s, 152° | 492 W/m² | - |
| 1778005290 | 25.56° C | 41% | 1014.9 hPa | 0 mm | 3.13 m/s, 237° | 572 W/m² | - |
| 1778004986 | 25.56° C | 42% | 1014.8 hPa | 0 mm | 2.68 m/s, 172° | 506 W/m² | - |
| 1778004684 | 25.56° C | 42% | 1015.4 hPa | 0 mm | 1.34 m/s, 268° | 318 W/m² | - |
| 1778004380 | 25.56° C | 41% | 1015 hPa | 0 mm | 0.89 m/s, 223° | 325 W/m² | - |
| 1778004078 | 25.56° C | 41% | 1015.1 hPa | 0 mm | 1.34 m/s, 181° | 516 W/m² | - |
| 1778003773 | 26.11° C | 36% | 1015 hPa | 0 mm | 1.34 m/s, 182° | 266 W/m² | - |
| 1778003470 | 26.11° C | 36% | 1015.2 hPa | 0 mm | 1.79 m/s, 284° | 577 W/m² | - |
| 1778003167 | 25.56° C | 37% | 1015.1 hPa | 0 mm | 1.34 m/s, 208° | 619 W/m² | - |
| 1778002863 | 26.11° C | 35% | 1015.2 hPa | 0 mm | 2.68 m/s, 249° | 546 W/m² | - |
| 1778002560 | 25.56° C | 37% | 1015.5 hPa | 0 mm | 0.45 m/s, 314° | 587 W/m² | - |
| 1778002256 | 26.11° C | 36% | 1015.4 hPa | 0 mm | 0.45 m/s, 349° | 443 W/m² | - |
| 1778001954 | 25.56° C | 39% | 1015.4 hPa | 0 mm | 1.34 m/s, 209° | 604 W/m² | - |
| 1778001651 | 25.56° C | 36% | 1015.6 hPa | 0 mm | 3.13 m/s, 179° | 614 W/m² | - |
| 1778001345 | 25.56° C | 36% | 1015.6 hPa | 0 mm | 3.13 m/s, 175° | 589 W/m² | - |
| 1778001043 | 25° C | 37% | 1015.6 hPa | 0 mm | 1.79 m/s, 219° | 570 W/m² | - |
| 1778000739 | 25° C | 38% | 1015.9 hPa | 0 mm | 1.79 m/s, 339° | 641 W/m² | - |
| 1778000436 | 25.56° C | 37% | 1016.4 hPa | 0 mm | 1.34 m/s, 327° | 689 W/m² | - |
| 1778000131 | 25° C | 39% | 1016.3 hPa | 0 mm | 1.79 m/s, 164° | 664 W/m² | - |
| 1777999827 | 25° C | 40% | 1016.3 hPa | 0 mm | 1.34 m/s, 184° | 681 W/m² | - |
| 1777999523 | 25° C | 38% | 1016.3 hPa | 0 mm | 4.02 m/s, 152° | 672 W/m² | - |
| 1777999221 | 24.44° C | 38% | 1016.3 hPa | 0 mm | 3.13 m/s, 162° | 655 W/m² | - |
| 1777998919 | 25° C | 39% | 1016.8 hPa | 0 mm | 1.34 m/s, 303° | 658 W/m² | - |
| 1777998616 | 24.44° C | 40% | 1016.5 hPa | 0 mm | 0.45 m/s, 331° | 647 W/m² | - |
| 1777998309 | 24.44° C | 40% | 1016.7 hPa | 0 mm | 2.24 m/s, 162° | 649 W/m² | - |
* Rain latest hour (hover to see other rain measurements)
** Current wind speed in m/s (hover to see current wind gust speed)